Regional Weather Roundup
Issued by NWS

Home | Current Version | Previous Version | Text Only | Print | Product List | Glossary On
Versions: 1 2 3 4 5 6 7 8 9 10 11 12 13 14 15 16 17 18 19 20 21 22 23 24 25 26 27 28 29 30 31 32 33 34 35 36 37 38 39 40 41 42 43 44 45 46 47 48 49 50
341
ASUS42 KFFC 201303
RWRGA
WEATHER ROUNDUP FOR GEORGIA
NATIONAL WEATHER SERVICE PEACHTREE CITY GA
800 AM EST MON FEB 20 2017

NOTE: "FAIR" INDICATES FEW OR NO CLOUDS BELOW 12,000 FEET WITH NO
SIGNIFICANT WEATHER AND/OR OBSTRUCTIONS TO VISIBILITY.

* = USE WITH CAUTION. THE STATIONS MARKED WITH AN ASTERISK MAY NOT
REPORT WEATHER SUCH AS PRECIPITATION, FOG, OR THUNDER AND ARE NOT
QUALITY CONTROLLED BY NWS.

THE REMARK "TC" DENOTES TEMPERATURE READING IN DEGREES CELSIUS.

GAZ001>058-201400-
NORTH GEORGIA

CITY           SKY/WX    TMP DP  RH WIND       PRES   REMARKS
ATLANTA        PTCLDY    52  46  80 E5        30.18R
ATHENS         CLOUDY    44  43  96 CALM      30.20R
CHAMBLEE       PTCLDY    48  43  82 NE5       30.18R
PEACHTREE CITY CLOUDY    40  39  97 CALM      30.19R
ROME           CLOUDY    43  40  89 CALM      30.19R
WEST ATLANTA   CLEAR     43  41  93 CALM      30.18R
GAINESVILLE    CLOUDY    48  44  86 CALM      30.21R
CARTERSVILLE   CLOUDY    39  39 100 CALM      30.20S


CITY           SKY/WX    TMP DP  RH WIND       PRES   REMARKS
DALTON*        PTCLDY    37  37 100 CALM      30.21R
LAWRENCEVILLE* CLEAR     43  39  87 CALM      30.19
MARIETTA       MOCLDY    45  42  91 CALM      30.18R
KENNESAW*      CLEAR     43  43 100 CALM      30.21R
CANTON*        CLOUDY    41  37  87 CALM      30.21R
$$

GAZ059>098-102>109-201400-
CENTRAL GEORGIA

CITY           SKY/WX    TMP DP  RH WIND       PRES   REMARKS
AUGUSTA-BUSH   PTCLDY    48  44  86 CALM      30.19R
AUGUSTA-DANIEL PTCLDY    55  45  68 NE5       30.19R
COLUMBUS       PTCLDY    49  45  86 CALM      30.16R
MACON          CLEAR     45  43  93 W5        30.18R
ROBINS AFB     CLEAR     47  46  96 N3        30.18R


CITY           SKY/WX    TMP DP  RH WIND       PRES   REMARKS
LAGRANGE*      PTCLDY    43  43 100 CALM      30.17S
SYLVANIA*      MOSUNNY  N/A N/A N/A CALM      30.19R
MILLEDGEVILLE* CLEAR     45  45 100 CALM      30.19R
$$

GAZ099>101-110>166-201400-
SOUTH GEORGIA

CITY           SKY/WX    TMP DP  RH WIND       PRES   REMARKS
SAVANNAH       CLOUDY    53  49  86 CALM      30.18R
VALDOSTA       CLEAR     50  49  96 CALM      30.16R
ALMA           MOSUNNY   54  52  93 CALM      30.16R
ST SIMONS      SUNNY     56  53  90 N5        30.14R
FT STEWART     CLOUDY    49  47  92 CALM      30.15R
ALBANY         CLOUDY    50  49  96 CALM      30.19R
HUNTER AFB     CLOUDY    56  52  88 CALM      30.15R
MOODY AFB      CLEAR     52  51  95 CALM      30.15R
BRUNSWICK      FOG       50  50 100 CALM      30.16R VSB 1/4


CITY           SKY/WX    TMP DP  RH WIND       PRES   REMARKS
BAINBRIDGE*    PTCLDY    54  52  94 CALM      30.17R
MOULTRIE*      CLOUDY    52  50  93 CALM      30.18R
VIDALIA*       MOSUNNY   54  54 100 CALM      30.17R
WAYCROSS*      MOSUNNY   54  54 100 CALM      30.17R
DOUGLAS*       PTCLDY    50  50 100 CALM      30.18R
$$




USA.gov is the U.S. government's official web portal to all federal, state and local government web resources and services.